User: anonymous   Login
Location: Unspecified
(0.0000°N, 0.0000°E)
Time: 10:33:03
(UTC+00:00)
Language:

TEN-KOH - Orbit

View from above orbital plane
View from above orbital plane
View from above satellite
View from above satellite

Ground track
Ground track

The orbit data is extracted from the following two-line orbital elements,

1 43677U 18084G   19107.84610412 -.00000432 +00000-0 -38707-4 0  9992
2 43677 097.8422 222.0106 0017326 123.2880 236.9997 14.90144622025406
Epoch (UTC): 17 April 2019 20:18:23
Eccentricity: 0.0017326
inclination: 97.8422°
perigee height: 585 km
apogee height: 609 km
right ascension of ascending node: 222.0106°
argument of perigee: 123.2880°
revolutions per day: 14.90144622
mean anomaly at epoch: 236.9997°
orbit number at epoch: 2540

The dashed part of the orbit path shows where the satellite is in the earth's shadow,  

DLR